Location: Unspecified
(0.0000°N, 0.0000°E)
Time: 17:58:17
(UTC+00:00)

Tiros 1 - All Passes

Search period start: 18 January 2020 00:00
Search period end: 28 January 2020 00:00
Orbit: 630 x 664 km, 48.4° (Epoch: 18 January)

Date Brightness Start Highest point End Pass type
(mag) Time Alt. Az. Time Alt. Az. Time Alt. Az.
18 Jan - 00:39:06 10° NW 00:43:47 57° SW 00:48:26 10° SSE night (unlit)
18 Jan - 11:11:17 10° S 11:14:42 20° SE 11:18:06 10° E daylight
18 Jan - 12:52:38 10° WSW 12:56:42 30° NW 13:00:47 10° N daylight
18 Jan - 23:23:21 10° NNW 23:27:45 37° NE 23:32:08 10° ESE night (unlit)
19 Jan - 01:06:37 10° W 01:09:48 18° SW 01:12:58 10° S night (unlit)
19 Jan - 11:36:05 10° SSW 11:40:41 68° SE 11:45:18 10° NE daylight
19 Jan - 22:11:03 10° NE 22:11:36 10° NE 22:12:10 10° NE night (unlit)
19 Jan - 23:49:00 10° NW 23:53:44 65° SW 23:58:27 10° SSE night (unlit)
20 Jan - 10:21:31 10° S 10:24:38 18° SE 10:27:46 10° E daylight
20 Jan - 12:02:28 10° WSW 12:06:40 34° NW 12:10:53 10° NNE daylight
20 Jan - 22:33:25 10° NNW 22:37:42 32° NE 22:41:58 10° ESE night (unlit)
21 Jan - 00:16:16 10° W 00:19:44 20° SW 00:23:13 10° S night (unlit)
21 Jan - 10:46:06 10° SSW 10:50:39 59° SE 10:55:13 10° NE daylight
21 Jan - 12:31:51 10° WNW 12:32:44 10° NW 12:33:37 10° NW daylight
21 Jan - 22:58:54 10° NW 23:03:41 74° SW 23:08:27 10° SSE night (unlit)
22 Jan - 09:31:49 10° SSE 09:34:36 16° SE 09:37:23 10° E daylight
22 Jan - 11:12:19 10° WSW 11:16:37 39° NW 11:20:56 10° NNE daylight
22 Jan - 21:43:30 10° N 21:47:39 29° NE 21:51:47 10° ESE night (unlit)
22 Jan - 23:25:57 10° WNW 23:29:41 22° SW 23:33:25 10° S night (unlit)
23 Jan - 09:56:08 10° SSW 10:00:37 51° SE 10:05:07 10° NE daylight
23 Jan - 11:40:55 10° WNW 11:42:41 12° NW 11:44:27 10° NNW daylight
23 Jan - 22:08:50 10° NW 22:13:38 84° SW 22:18:25 10° SE night (unlit)
24 Jan - 08:42:11 10° SSE 08:44:33 14° SE 08:46:54 10° E daylight
24 Jan - 10:22:11 10° WSW 10:26:35 44° NW 10:31:00 10° NNE daylight
24 Jan - 20:53:37 10° N 20:57:35 26° NE 21:01:33 10° ESE night (unlit)
24 Jan - 22:35:41 10° WNW 22:39:37 25° SW 22:43:34 10° S night (unlit)
25 Jan - 09:06:11 10° SSW 09:10:35 45° SE 09:15:00 10° NE daylight
25 Jan - 10:50:20 10° W 10:52:38 14° NW 10:54:56 10° NNW daylight
25 Jan - 21:18:46 10° NW 21:23:34 86° NE 21:28:23 10° SE night (unlit)
26 Jan - 07:52:40 10° SSE 07:54:30 12° SE 07:56:20 10° ESE daylight
26 Jan - 09:32:05 10° SW 09:36:33 50° NW 09:41:01 10° NNE daylight
26 Jan - 20:03:44 10° N 20:07:31 23° NE 20:11:18 10° ESE visible
26 Jan - 21:45:26 10° WNW 21:49:34 28° SW 21:53:42 10° S night (unlit)
27 Jan - 08:16:14 10° SSW 08:20:33 39° SE 08:24:51 10° ENE daylight
27 Jan - 09:59:52 10° W 10:02:35 15° NW 10:05:18 10° NNW daylight
27 Jan - 20:28:44 10° NW 20:33:31 76° NE 20:38:19 10° SE visible
